STARLINK-36951, 67990

Orbit data source: Space-Track

STARLINK-36951, 67990 is a payload satellite owned by SpaceX/Seattle (US) in LEO that was launched on Fri, 27 Feb 2026 UTC via an FALCON 9 launch vehicle from the Air Force Eastern Test Range (AFETR). Payload-class satellites include a variety of spacecraft equipped with specific instruments for various scientific and technological missions. These include communications satellites like Starlink; space stations such as the ISS; scientific satellites like the Hubble; Earth observation satellites from companies like Planet Labs, Umbra, and HawkEye 360; GPS; miniature CubeSats for education and research; and military/defense satellites.

Loading next visibility...
Identifier
67990, 2026-039E
Orbit
LEO
Country
Flag of USUS
Related business
Manufacturer
SpaceX/Seattle
Mission
Operational Commercial Communications
Bus & Motor
STARLINK V2MO, Unknown motor
Mass
575 kg wet, ~530 kg dry
Launch date (UTC)
2026-02-27 (2 months ago)
Launch vehicle
FALCON 9
Launch site
Air Force Eastern Test Range (AFETR)
Object type
Payload
Rocket body
Debris
Shape & HBR
Box + 2 Pan, 17.7 m
Radar Cross Section
36.964 m²

Expand to show TLE details & history
Last TLE update: 8 hours ago

TLE from 8 hours ago
0 STARLINK-36951
1 67990U 26039E   26112.18681861  .00011357  00000-0  42176-3 0  9992
2 67990  43.0009 163.4666 0001664 269.0480  91.0181 15.27566832  8358
Epoch: 2026-04-22T04:29Z
TLE epoch observation values (Epoch: 2026-04-22T04:29:01.127Z)
Latitude
-0.00004°
Longitude
-114.03999°
Altitude
482.885 km
Speed
7.626 km/s
True Right ascension
10h 53m 51s
True Declination
0° 00' 00"
Sunlit
Object was in full shadow at epoch
Visualization orbit readout
Latitude
Unknown
Longitude
Unknown
Altitude
Unknown
Speed
Unknown
Apparent Right ascension
Unknown
Apparent Declination
Unknown
Sunlit
N/A
Visualization observer readout
Local Sidereal Time
19:02:47
Azimuth
Unknown
Elevation
Unknown
Doppler factor
Unknown
Orbital elements
Apogee altitude
486.176 km
Perigee altitude
483.892 km
Semi-major axis
6,863.171 km
Eccentricity
0.00017
Inclination
43.0009°
RAAN
163.4666°
Arg. of periapsis
269.048°
True anomaly
91.03716°
Mean anomaly
91.0181°
Eccentric anomaly
91.02763°
Mean motion
3.8173 °/min
Orbital period
94.31 mins
BSTAR
0.00042176
Loading maneuver chart data...
Computing Atmospheric mass density...
Loading historical data...
Loading historical data...
Loading historical data...
Loading historical data...
Loading historical data...
Loading historical data...
Loading historical data...

Documentation

Showing up to 5 results
|